UmKA 1 (RS40S)
1 57172U 23091G   26030.50378840  .00010571  00000-0  50726-3 0  9990
2 57172  97.5268  89.7646 0012102 236.2750 123.7332 15.18996899143095
CubeBel-2 (EU11S)
1 57175U 23091K   26030.48088580  .00017712  00000-0  69839-3 0  9998
2 57175  97.5264  92.6913 0009526 236.7196 123.3130 15.25592281143287
RS-38S
1 57189U 23091Z   26030.48782470  .00022874  00000-0  75788-3 0  9997
2 57189  97.5288  97.5765 0007712 193.6588 166.4445 15.31269453143587
SONATE-2
1 59112U 24043Q   26030.37160014  .00041986  00000-0  79007-3 0  9998
2 59112  97.5345 173.5621 0008319 352.5141   7.5983 15.48398511106497
MO-122
1 60209U 24125G   26030.52646747  .00044936  00000-0  79178-3 0  9994
2 60209  97.2499 246.0525 0014031  11.2788 348.8776 15.50189120 88156
GRBBeta
1 60237U 24128C   26030.25216138  .00007365  00000-0  50965-3 0  9993
2 60237  61.9919 339.7716 0054276 106.2711 254.4361 15.05330424 85491
Curium One
1 60242U 24128H   26030.22250419  .00014088  00000-0  84576-3 0  9991
2 60242  61.9810 333.5410 0054199 102.9001 257.8155 15.09956733 85601
ROBUSTA-3A
1 60243U 24128J   26030.24818409  .00014920  00000-0  91166-3 0  9991
2 60243  61.9887 335.2098 0054602 100.4968 260.2285 15.09263683 85585
CatSat
1 60246U 24125J   26030.52005433  .00052910  00000-0  10978-2 0  9999
2 60246  97.2263 242.5117 0030018 332.4184  27.5471 15.45045470 86047
HYPERVIEW-1G (RS66S)
1 61772U 24199AP  26030.54192810  .00063802  00000-0  10130-2 0  9995
2 61772  97.3161 265.7468 0011473  65.0650 295.1794 15.53067756113173
AO-123
1 61781U 24199AY  26030.57720318  .00013709  00000-0  42764-3 0  9998
2 61781  97.3216 260.5226 0016043  81.9345 278.3717 15.33212319112829
HADES-R (SO-124)
1 62690U 25009CK  26030.19442931  .02009841  29592-2  34567-2 0  9993
2 62690  97.3643 120.6587 0008518 296.6282  63.4125 16.03106857 58396
HYDRA-T
1 62692U 25009CM  26028.19742799  .10589489  24473-5  20739-2 0  9999
2 62692  97.3569 119.0624 0010828 297.3030  62.7162 16.31546071 58115
JINJUSat 1B
1 63210U 25052A   26030.25821671  .00025043  00000-0  89868-3 0  9995
2 63210  97.4178 287.1691 0002840 180.9039 179.2196 15.28675493 48993
NUSHSAT 1
1 63211U 25052B   26030.21512378  .00029082  00000-0  99886-3 0  9991
2 63211  97.4159 287.3251 0002349 182.9187 177.2040 15.30078272 49001
TEVEL2-4
1 63213U 25052D   26030.43594933  .00026184  00000-0  92303-3 0  9991
2 63213  97.4082 286.9911 0001064 188.4923 171.6299 15.29253063 49025
TEVEL2-5
1 63214U 25052E   26029.98608192  .00027153  00000-0  96062-3 0  9996
2 63214  97.4080 286.5228 0001046 198.1770 161.9433 15.29128141 48950
TEVEL2-6
1 63215U 25052F   26030.45291330  .00026362  00000-0  93334-3 0  9993
2 63215  97.4082 286.9747 0001182 196.5098 163.6104 15.29109356 49029
TEVEL2-1
1 63217U 25052H   26030.24487894  .00026783  00000-0  95935-3 0  9990
2 63217  97.4055 286.5358 0000848 238.9972 121.1184 15.28724535 48987
TEVEL2-3
1 63218U 25052J   26030.24326872  .00026475  00000-0  94756-3 0  9997
2 63218  97.4058 286.5431 0000915 237.2149 122.9002 15.28753700 48980
TEVEL2-2
1 63219U 25052K   26030.24558179  .00026182  00000-0  93794-3 0  9991
2 63219  97.4056 286.5376 0000792 241.8629 118.2531 15.28725976 48983
TEVEL2-9
1 63237U 25052AD  26030.19230012  .00025276  00000-0  95071-3 0  9991
2 63237  97.4121 286.1178 0004809 275.6961  84.3729 15.27116173 48938
TEVEL2-7
1 63238U 25052AE  26030.21153892  .00024138  00000-0  91330-3 0  9995
2 63238  97.4122 286.1002 0004836 276.6114  83.4574 15.26929246 48937
TEVEL2-8
1 63239U 25052AF  26030.28350911  .00023982  00000-0  90804-3 0  9995
2 63239  97.4119 286.1543 0004805 277.0300  83.0393 15.26908224 48941
HYDRA-W
1 63490U 25052BL  26030.45128881  .00146855  00000-0  24759-2 0  9992
2 63490  97.4027 290.2279 0002652 245.2288 114.8688 15.51139258 49245
HADES-ICM (SO-125)
1 63492U 25052BN  26030.20280080  .00124098  00000-0  23671-2 0  9994
2 63492  97.4030 289.5248 0003424 262.9179  97.1682 15.47693759 49176
Dragonfly
1 65729U 98067XH  26030.50065500  .05364586  12031-4  14528-2 0  9991
2 65729  51.6030 240.6929 0007499 256.7086 103.3099 16.27314818 20908
RSP-03
1 65732U 98067XL  26030.01908854  .00452268  88678-4  14273-2 0  9996
2 65732  51.6193 247.3485 0005454 204.6717 155.4029 15.90730226 20786
BOTAN
1 65942U 98067XP  26029.98267588  .00273998  00000-0  14814-2 0  9996
2 65942  51.6204 253.1574 0005488 202.4121 157.6641 15.78748703 17446
CEVROSAT1
1 66309U 25248S   26030.02492991  .00007665  00000-0  37467-3 0  9996
2 66309  45.4030 141.6337 0003251 326.3451  33.7228 15.18809943 13492
SPIRONE
1 66657U 25274H   26030.34671782  .00004630  00000-0  45209-3 0  9995
2 66657  97.7418 321.7366 0013908 109.9480 250.3239 14.92808569  9654
K-HERO
1 66660U 25274L   26030.32513800  .00003454  00000-0  33456-3 0  9997
2 66660  97.7425 321.7703 0015499 114.6051 245.6785 14.93286253  9659
SNUGLITE-III DURI
1 66661U 25274M   26030.38650039  .00002815  00000-0  27284-3 0  9992
2 66661  97.7422 321.8412 0016121 115.6535 244.6352 14.93396333  9667
SilverSat
1 66909U 98067XV  26030.35461385  .00131519  00000-0  15298-2 0  9993
2 66909  51.6279 259.4248 0003288 163.8706 196.2392 15.60771787  9187
SAKHACUBE-CHOLBON
1 67290U 25313AU  26030.29815726  .00016897  00000-0  74220-3 0  9998
2 67290  97.4088 107.2592 0010949 118.2850 241.9493 15.21938529  4984
QMR-KWT
1 67291U 25313AV  26030.29634763  .00022826  00000-0  99410-3 0  9996
2 67291  97.4087 107.2617 0010677 118.1747 242.0569 15.22168595  4989
IO-86
1 40931U          25360.30710720  .00000000  00000-0  12800-3 0    00
2 40931   6.0006 332.5373 0012733 338.8432   8.1437 14.79075515    01
